Tracking 29494 objects as of 7-Sep-2024
HD Live streaming from Space Station
objects crossing your sky now

THOR ABLESTAR DEB

Track THOR ABLESTAR DEB now!
10-day predictions


NORAD ID: 120
Int'l Code: 1961-015E
Perigee: 729.7 km
Apogee: 882.6 km
Inclination: 66.7 °
Period: 100.9 minutes
Semi major axis: 7177 km
RCS: 0.214 m2 (medium)
Launch date: June 29, 1961
Source: United States (US)
Launch site: AIR FORCE EASTERN TEST RANGE (AFETR)

Note: This is SATELLITE DEBRIS
Your satellite tracking list
Your tracking list is empty




NASA's NSSDC Master Catalog

Two Line Element Set (TLE):
1 00120U 61015E   24251.58819168  .00003449  00000-0  13429-2 0  9997
2 00120  66.7079 322.4265 0106548 115.7478 245.4663 14.27816711255809
Source of the keplerian elements: AFSPC